Location: Saint-Palais-sur-Mer
(45.6429°N, 1.0859°W)
Time: 01:15:42
(UTC+01:00)

Tiros 1 despin weight - Pass Details

Date: 14 February 2026
Orbit: 556 x 593 km, 48.2° (Epoch: 13 March)

Event Time Altitude Azimuth Distance (km) Brightness Sun altitude
Rises 19:36:20 0° 268° (W) 2,730 ? -12.2°
Reaches altitude 10° 19:38:36 10° 271° (W) 1,836 ? -12.6°
Maximum altitude 19:42:45 63° 353° (N) 624 ? -13.3°
Enters shadow 19:45:20 22° 70° (ENE) 1,246 ? -13.8°
Drops below altitude 10° 19:46:56 10° 76° (ENE) 1,844 - -14.1°
Sets 19:49:13 0° 79° (E) 2,744 - -14.5°
